This is the latest recevied weather packets stored in our database for station/object DB0RV-13. If no packets are shown the sender has not sent any weather packets the latest 1 day(s).
| Time | Temp. | Humidity | Pressure | Rain* | Wind** | Luminosity | Snow |
|---|---|---|---|---|---|---|---|
| 1778001602 | 15.56° C | 60% | 1007.3 hPa | - | 4.47 m/s, 315° | - | - |
| 1778001302 | 15.56° C | 62% | 1007.1 hPa | - | 2.24 m/s, 285° | - | - |
| 1778001001 | 15.56° C | 65% | 1007.2 hPa | - | 4.47 m/s, 267° | - | - |
| 1778000702 | 15.56° C | 69% | 1007.2 hPa | - | 3.13 m/s, 266° | - | - |
| 1778000402 | 15.56° C | 76% | 1007.2 hPa | - | 1.34 m/s, 256° | - | - |
| 1778000102 | 15.56° C | 75% | 1007 hPa | - | 2.24 m/s, 216° | - | - |
| 1777999801 | 15.56° C | 74% | 1007 hPa | - | 2.24 m/s, 207° | - | - |
| 1777999502 | 15.56° C | 74% | 1006.9 hPa | - | 2.68 m/s, 216° | - | - |
| 1777999202 | 15.56° C | 74% | 1007 hPa | - | 0.89 m/s, 222° | - | - |
| 1777998902 | 15.56° C | 74% | 1006.9 hPa | - | 2.68 m/s, 203° | - | - |
| 1777998602 | 15.56° C | 73% | 1006.9 hPa | - | 3.13 m/s, 211° | - | - |
| 1777998301 | 16.11° C | 72% | 1006.9 hPa | - | 1.79 m/s, 192° | - | - |
| 1777998002 | 16.11° C | 71% | 1007 hPa | - | 0 m/s | - | - |
| 1777997701 | 16.11° C | 71% | 1006.9 hPa | - | 0.89 m/s, 249° | - | - |
| 1777997402 | 15.56° C | 71% | 1006.9 hPa | - | 1.34 m/s, 288° | - | - |
| 1777997101 | 15.56° C | 69% | 1006.8 hPa | - | 0.89 m/s, 315° | - | - |
| 1777996802 | 16.11° C | 69% | 1006.7 hPa | - | 1.79 m/s, 307° | - | - |
| 1777996502 | 15.56° C | 70% | 1006.7 hPa | - | 0 m/s | - | - |
| 1777996201 | 15.56° C | 73% | 1006.6 hPa | - | 1.34 m/s, 130° | - | - |
| 1777995902 | 15.56° C | 75% | 1006.7 hPa | - | 1.34 m/s, 113° | - | - |
| 1777995601 | 15.56° C | 78% | 1006.6 hPa | - | 0.45 m/s, 106° | - | - |
| 1777995302 | 15° C | 80% | 1006.8 hPa | - | 0.89 m/s, 71° | - | - |
| 1777995001 | 15° C | 83% | 1006.8 hPa | - | 1.34 m/s, 154° | - | - |
| 1777994702 | 14.44° C | 83% | 1006.7 hPa | - | 1.34 m/s, 127° | - | - |
| 1777994401 | 14.44° C | 82% | 1006.8 hPa | - | 1.34 m/s, 149° | - | - |
* Rain since midnight (hover to see other rain measurements)
** Current wind speed in m/s (hover to see current wind gust speed)